PRAETORIAN SDA_502

导读

PRAETORIAN SDA_502(NORAD编号100060)是美国太空发展局(SDA)主导的PRAETORIAN系列军事卫星之一,隶属于美军扩散作战人员空间架构(PWSA)。该卫星运行于近地轨道,轨道高度约950公里,轨道倾角约81度,具备高抗干扰、高保密特性,主要承担军事通信数据传输、导弹预警跟踪相关任务,可为美军全球联合作战提供实时天基信息支撑,当前处于正常在轨运行状态。

基本信息
目录编号:
100060
目录名称:
PRAETORIAN SDA_502
国际标识:
2026-163B
轨道中心:
EARTH
卫星名称:
PRAETORIAN SDA_502
卫星全名:
PRAETORIAN SDA_502
卫星状态:
在轨 (已飞行60 天)
发射日期:
2026-07-16 UTC
国别 :
美国 (US)
星等 :
--
该卫星已列入 空间交会检测服务 Space Conjunction Data Service (SCDS) ,当前飞行风险评估等级: 无高风险
轨道信息
数据来源 国际轨道数据 AOE轨道数据
星历时间 2026-09-14T07:10:43+0800
7小时前
查看轨道信息
2026-09-12T22:00:00+0800
1天前
查看轨道信息
半长轴 7322.063km 7322.063km
偏心率 0.0015039 0.0015024
轨道倾角 81.480° 81.481°
近地点辐角 55.786° 60.064°
升交点赤经 255.929° 257.187°
平近点角 304.472° 247.900°
近地点 932.914km 932.925km
远地点 954.938km 954.927km
周期 103.923分钟 103.923分钟
每日圈数 13.856469 13.856471
详细信息
使用方式:
暂无
2D轨道图
3D轨道图
轨道高度分析图
轨道倾角分析图
轨道综合分析图
查看轨道综合分析图
与全量物体交会距离演化趋势 订阅飞行安全评估服务
与全量物体交会风险概率演化趋势 订阅飞行安全评估服务